Location: Newark
(27.9675°N, 86.8869°E)
Time: 10:43:36
(UTC+00:00)

Courier 1B - All Passes

Search period start: 23 October 2019 00:00
Search period end: 02 November 2019 00:00
Orbit: 962 x 1209 km, 28.3° (Epoch: 22 October)

Date Brightness Start Highest point End Pass type
(mag) Time Alt. Az. Time Alt. Az. Time Alt. Az.
23 Oct - 07:58:22 10° SSW 08:03:38 21° SSE 08:09:04 10° ESE daylight
23 Oct - 09:50:02 10° SW 09:57:25 54° SSE 10:05:01 10° E daylight
23 Oct - 11:43:55 10° W 11:51:46 88° S 11:59:39 10° E visible
23 Oct - 13:38:29 10° W 13:46:24 89° S 13:54:07 10° E visible
23 Oct - 15:33:10 10° W 15:40:45 55° SSW 15:47:59 10° SE visible
23 Oct - 17:29:02 10° WSW 17:34:29 21° SSW 17:39:43 10° SSE night (unlit)
24 Oct - 07:06:12 10° S 07:09:55 14° SSE 07:13:44 10° ESE daylight
24 Oct - 08:56:32 10° SW 09:03:33 43° SSE 09:10:50 10° E daylight
24 Oct - 10:50:00 10° WSW 10:57:44 81° SSE 11:05:38 10° E daylight
24 Oct - 12:44:26 10° W 12:52:21 88° N 13:00:11 10° E visible
24 Oct - 14:39:02 10° W 14:46:50 66° SSW 14:54:21 10° ESE visible
24 Oct - 16:34:20 10° W 16:40:45 29° SSW 16:46:55 10° SSE night (unlit)
25 Oct - 08:03:17 10° SW 08:09:44 34° SSE 08:16:29 10° E daylight
25 Oct - 09:56:10 10° WSW 10:03:44 72° SSE 10:11:35 10° E daylight
25 Oct - 11:50:26 10° W 11:58:16 87° N 12:06:11 10° E visible
25 Oct - 13:44:58 10° W 13:52:51 76° SSW 14:00:34 10° ESE visible
25 Oct - 15:39:54 10° W 15:46:57 38° SSW 15:53:46 10° SE visible
25 Oct - 17:38:14 10° SW 17:40:33 12° SW 17:42:51 10° SSW night (unlit)
26 Oct - 07:10:17 10° SSW 07:16:00 25° SSE 07:21:57 10° E daylight
26 Oct - 09:02:29 10° WSW 09:09:48 61° SSE 09:17:28 10° E daylight
26 Oct - 10:56:29 10° W 11:04:12 89° N 11:12:08 10° E daylight
26 Oct - 12:50:57 10° W 12:58:50 84° S 13:06:41 10° ESE visible
26 Oct - 14:45:38 10° W 14:53:07 48° SSW 15:00:23 10° SE visible
26 Oct - 16:42:07 10° WSW 16:46:50 17° SSW 16:51:26 10° S night (unlit)
27 Oct - 06:17:43 10° S 06:22:18 18° SSE 06:27:04 10° ESE daylight
27 Oct - 08:08:57 10° SW 08:15:56 50° SSE 08:23:18 10° E daylight
27 Oct - 10:02:35 10° W 10:10:10 86° S 10:18:03 10° E daylight
27 Oct - 11:56:59 10° W 12:04:47 90° S 12:12:42 10° E visible
27 Oct - 13:51:31 10° W 13:59:12 58° SSW 14:06:47 10° ESE visible
27 Oct - 15:47:07 10° W 15:53:04 24° SSW 15:58:54 10° SSE visible
28 Oct - 05:26:03 10° SSE 05:28:40 12° SE 05:31:19 10° ESE daylight
28 Oct - 07:15:36 10° SW 07:22:09 40° SSE 07:29:04 10° E daylight
28 Oct - 09:08:47 10° WSW 09:16:10 79° SSE 09:23:58 10° E daylight
28 Oct - 11:03:02 10° W 11:10:43 87° N 11:18:38 10° E daylight
28 Oct - 12:57:28 10° W 13:05:14 69° SSW 13:13:01 10° ESE visible
28 Oct - 14:52:33 10° W 14:59:16 32° SSW 15:05:54 10° SSE visible
29 Oct - 06:22:28 10° SSW 06:28:25 30° SSE 06:34:41 10° E daylight
29 Oct - 08:15:05 10° WSW 08:22:15 69° SSE 08:29:52 10° E daylight
29 Oct - 10:09:08 10° W 10:16:40 87° N 10:24:33 10° E daylight
29 Oct - 12:03:30 10° W 12:11:14 78° SSW 12:19:07 10° ESE visible
29 Oct - 13:58:13 10° W 14:05:25 40° SSW 14:12:35 10° SE visible
29 Oct - 15:55:41 10° WSW 15:59:10 13° SSW 16:02:37 10° S visible
30 Oct - 05:29:39 10° SSW 05:34:45 22° SSE 05:40:05 10° E daylight
30 Oct - 07:21:31 10° WSW 07:28:24 58° SSE 07:35:44 10° E daylight
30 Oct - 09:15:18 10° W 09:22:39 90° NNW 09:30:27 10° E daylight
30 Oct - 11:09:35 10° W 11:17:13 85° S 11:25:07 10° ESE daylight
30 Oct - 13:04:04 10° W 13:11:32 50° SSW 13:19:03 10° SE visible
30 Oct - 15:00:09 10° WSW 15:05:23 19° SSW 15:10:34 10° S visible
31 Oct - 04:37:18 10° S 04:41:08 16° SSE 04:45:04 10° ESE daylight
31 Oct - 06:28:05 10° SW 06:34:37 47° SSE 06:41:34 10° E daylight
31 Oct - 08:21:31 10° WSW 08:28:42 85° S 08:36:21 10° E daylight
31 Oct - 10:15:43 10° W 10:23:12 90° N 10:31:03 10° E daylight
31 Oct - 12:10:03 10° W 12:17:36 60° SSW 12:25:20 10° ESE visible
31 Oct - 14:05:22 10° W 14:11:34 26° SSW 14:17:47 10° SSE visible
01 Nov - 03:46:56 10° SSE 03:47:32 10° SE 03:48:07 10° SE daylight
01 Nov - 05:34:50 10° SW 05:40:55 36° SSE 05:47:20 10° E daylight
01 Nov - 07:27:49 10° WSW 07:34:47 77° SSE 07:42:15 10° E daylight
01 Nov - 09:21:53 10° W 09:29:11 87° N 09:36:57 10° E daylight
01 Nov - 11:16:08 10° W 11:23:39 70° SSW 11:31:27 10° ESE daylight
01 Nov - 13:10:57 10° W 13:17:44 33° SSW 13:24:36 10° SE visible
